THORAD AGENA D DEB, 4637

Orbit data source: Space-Track

THORAD AGENA D DEB, 4637 is space debris in SSO originally from a launch on Wed, 08 Apr 1970 UTC launched from the Air Force Western Test Range (AFWTR). Debris objects in space refer to the collection of defunct objects orbiting the Earth. Examples of debris include non-operational satellites, rocket bodies, and fragments generated from explosions, collisions, or faulty payload assembly.

Loading next visibility...
Identifier
4637, 1970-025V
Orbit
SSO
Country
Flag of USUS
Related business
Manufacturer
Unknown
Mission
Spacecraft
Bus & Motor
Unknown
Mass
Unknown
Launch date (UTC)
1970-04-08 (56 years ago)
Launch vehicle
Unknown
Launch site
Air Force Western Test Range (AFWTR)
Object type
Payload
Rocket body
Debris
Shape & HBR
Unknown shape, 0.2 m
Radar Cross Section
Medium (>0.1 m² and <1 m²)

Expand to show TLE details & history
Last TLE update: 10 hours ago

TLE from 10 hours ago
0 THORAD AGENA D DEB
1 04637U 70025V   26255.87955854  .00000036  00000-0  10189-3 0  9996
2 04637  99.9096 295.7499 0024927 107.2184  66.9409 13.64789182799598
Epoch: 2026-09-12T21:06Z
TLE epoch observation values (Epoch: 2026-09-12T21:06:33.857Z)
Latitude
5.41417°
Longitude
168.17042°
Altitude
1,013.414 km
Speed
7.349 km/s
True Right ascension
07h 46m 46s
True Declination
5° 22' 59"
Sunlit
Object was in daylight at epoch
Visualization orbit readout
Latitude
Unknown
Longitude
Unknown
Altitude
Unknown
Speed
Unknown
Apparent Right ascension
Unknown
Apparent Declination
Unknown
Sunlit
N/A
Visualization observer readout
Local Sidereal Time
23:49:59
Azimuth
Unknown
Elevation
Unknown
Doppler factor
Unknown
Orbital elements
Apogee altitude
1,034.061 km
Perigee altitude
997.2 km
Semi-major axis
7,393.768 km
Eccentricity
0.00249
Inclination
99.9096°
RAAN
295.7499°
Arg. of periapsis
107.2184°
True anomaly
67.20404°
Mean anomaly
66.9409°
Eccentric anomaly
67.07244°
Mean motion
3.41385 °/min
Orbital period
105.45 mins
BSTAR
0.00010189
Loading maneuver chart data...
Computing Atmospheric mass density...

Documentation

Showing up to 5 results
|